Home   Weather   Grande Prairie   Past weeks

Flag for Canada Past Weather in Grande Prairie, Alberta, Canada — Yesterday and Last 2 Weeks

Now
27 °F

Passing clouds.


Feels Like: 27 °F
Forecast: 19 / 44 °F
Wind: No wind

Location: Grande Prairie

Current Time: Apr 25, 2017 at 2:40:54 am

Latest Report: Apr 25, 2017 at 2:00 am


Visibility: 25 mi

Pressure: 30.04 "Hg (27.65 "Hg at 657m altitude)

Humidity: 93%

Dew Point: 25 °F

Location of Grande PrairieLocation

Past Weather in Grande Prairie — Graph

°F

Grande Prairie Temperature Yesterday

Maximum temperature yesterday: 37 °F (at 7:00 pm)
Minimum temperature yesterday: 28 °F (at 10:00 pm)
Average temperature yesterday: 32 °F

High & Low Weather Summary for the Past Weeks

 TemperatureHumidityPressure
High48 °F (Apr 10, 1:00 pm)100% (Apr 13, 7:28 pm)30.42 "Hg (Apr 13, 7:28 pm)
Low19 °F (Apr 18, 7:00 am)45% (Apr 22, 5:00 pm)29.88 "Hg (Apr 24, 4:00 am)
Average34 °F82%30.09 "Hg
* Reported Apr 10 1:00 am — Apr 25 1:00 am, Grande Prairie, Weather by CustomWeather, © 2017

Note: Actual official high and low records may vary slightly from our data, if they occured in-between our weather recording intervals... More about our weather records

Advertising

Grande Prairie Weather History for the Previous 24 Hours

Scroll right to see more
 ConditionsComfort  
Time TempWeatherWind HumidityBarometerVisibility
1:00 am
Tue, Apr 25
28 °FPassing clouds.No wind80%30.04 "Hg25 mi
12:00 am28 °FPassing clouds.2 mph80%30.04 "Hg25 mi
11:00 pm
Mon, Apr 24
28 °FPassing clouds.3 mph80%30.04 "Hg55 mi
10:00 pm28 °FPassing clouds.6 mph80%30.03 "Hg25 mi
9:00 pm34 °FScattered clouds.5 mph65%30.01 "Hg25 mi
8:00 pm36 °FPartly sunny.5 mph52%30.00 "Hg25 mi
7:00 pm37 °FPartly sunny.6 mph52%29.98 "Hg25 mi
6:00 pm36 °FBroken clouds.6 mph56%29.98 "Hg25 mi
5:00 pm36 °FBroken clouds.7 mph65%29.98 "Hg25 mi
4:00 pm36 °FPartly sunny.9 mph60%29.97 "Hg25 mi
3:00 pm34 °FPartly sunny.8 mph70%29.96 "Hg25 mi
2:00 pm36 °FPartly sunny.10 mph70%29.95 "Hg20 mi
1:35 pm34 °FPartly sunny.13 mph75%29.95 "Hg15 mi
1:00 pm34 °FSnow flurries. Broken clouds.9 mph81%29.94 "Hg8 mi
12:00 pm34 °FSnow flurries. Low clouds.8 mph81%29.93 "Hg6 mi
11:32 am32 °FSnow flurries. More clouds than sun.7 mph80%29.92 "Hg4 mi
11:00 am30 °FLight snow. Mostly cloudy.8 mph86%29.92 "Hg3 mi
10:00 am30 °FLight snow. Mostly cloudy.9 mph86%29.91 "Hg2 mi
9:00 am30 °FLight snow. Mostly cloudy.7 mph93%29.91 "Hg2 mi
8:00 am30 °FLight snow. Low clouds.6 mph93%29.90 "Hg2 mi
7:00 am30 °FLight snow. Low clouds.6 mph86%29.89 "Hg4 mi
6:00 am30 °FLight snow. Overcast.6 mph86%29.88 "Hg15 mi
5:00 am30 °FLight snow. Mostly cloudy.7 mph93%29.88 "Hg10 mi
4:00 am30 °FPassing clouds.6 mph93%29.88 "Hg10 mi
3:00 am30 °FLight snow. Mostly cloudy.3 mph93%29.88 "Hg10 mi
2:00 am30 °FLight snow. Mostly cloudy.3 mph93%29.90 "Hg15 mi
Weather by CustomWeather, © 2017

See weather overviewHow to use our weather pages